Location: Pease Mill (historical)
(41.6689°N, 81.1837°W)
Time: 04:44:49
(UTC+00:00)

Daily predictions for brighter satellites

Satellite Brightness Start Highest point End
(mag) Time Altitude Azimuth Time Altitude Azimuth Time Altitude Azimuth
OAO 2 Rocket 4.3 00:02:19 10° SW 00:06:37 30° SSE 00:07:50 27° SE
SeaSat 1 2.9 00:11:24 39° ENE 00:11:47 39° NE 00:16:21 10° NNW
Cosmos 2219 3.1 00:06:32 10° NNW 00:12:20 87° ENE 00:17:55 11° SSE
USA 305 4.3 00:10:01 10° NW 00:13:33 24° NNE 00:13:35 24° NNE
YAOGAN 1 2.6 00:11:16 10° S 00:15:35 80° WSW 00:19:56 10° NNW
USA 306 4.3 00:16:17 10° NW 00:19:37 25° NNE 00:19:37 25° NNE
S3M 3.8 00:15:19 10° S 00:21:24 81° E 00:27:34 10° N
Cosmos 2082 3.9 00:16:45 10° NNW 00:22:16 46° ENE 00:22:41 45° ENE
Cosmos 1892 2.9 00:19:49 10° NNW 00:23:42 72° W 00:26:13 20° S
SL-4 R/B 3.8 00:21:46 10° NW 00:24:00 18° N 00:24:00 18° N
CZ-2C R/B 3.4 00:19:15 10° S 00:25:04 76° WSW 00:30:48 10° NNW
Cosmos 1315 Rocket 4.0 00:22:22 10° S 00:24:27 30° S 00:24:27 30° S
Cosmos 968 Rocket 3.3 00:21:04 10° NNW 00:26:18 81° ENE 00:28:17 39° SSE
Cosmos 1346 Rocket 3.0 00:25:01 10° N 00:28:23 62° N 00:28:23 62° N
Cosmos 2369 3.6 00:25:54 10° S 00:31:32 62° ESE 00:32:24 55° ENE
CRYOSAT 2 4.3 00:27:33 10° N 00:32:26 85° W 00:37:18 10° S
Atlas Centaur 2 3.9 00:25:41 10° SW 00:33:05 34° S 00:35:21 29° SE
Meteor 2-10 Rocket 3.7 00:29:16 10° SSW 00:34:39 75° W 00:39:51 10° N
Okean-O 4.1 00:32:49 10° SSW 00:36:54 36° W 00:41:01 10° NNW
ARGOS 3.0 00:36:35 53° SE 00:37:52 76° ENE 00:43:18 10° N
Cosmos 1486 Rocket 4.1 00:33:17 10° NNW 00:38:38 76° WSW 00:41:02 33° S
NOSS 3-3 (A) 3.7 00:34:12 10° SSW 00:39:54 84° ESE 00:41:50 47° NE
NOSS 3-3 (C) 3.7 00:34:17 10° SSW 00:40:02 83° ESE 00:41:58 47° NE
Meteor 2-1 Rocket 4.3 00:37:22 10° SSW 00:42:52 74° WNW 00:48:23 10° N
USA 215 3.9 00:42:31 36° NE 00:43:20 38° NNE 00:49:15 10° NW
MOS 1 Rocket 3.9 00:42:47 10° N 00:47:21 57° WNW 00:52:11 10° SSW
Cosmos 1503 Rocket 4.1 00:42:53 10° NNW 00:47:17 61° N 00:47:17 61° N
Cosmos 2227 Rocket 2.5 00:43:04 10° NNW 00:48:40 63° WSW 00:51:12 32° S
CSL-04 Rocket 4.2 00:47:30 10° S 00:52:58 60° W 00:58:27 10° NNW
ATLAS 2AS CENTAUR R/B 3.8 00:48:09 10° NNW 00:54:13 30° NNE 00:54:13 30° NNE
Cosmos 2263 Rocket 4.1 00:52:55 10° N 00:54:45 18° NNE 00:54:45 18° NNE
GEOS 3 Rocket 3.9 00:57:17 59° SSW 00:57:56 65° WSW 01:03:18 10° NW
BREEZE-M R/B 4.5 00:57:00 10° NW 01:01:53 53° NNE 01:02:10 53° NNE
Lacrosse 5 4.1 01:01:32 10° NNW 01:03:38 15° N 01:03:38 15° N
Cosmos 1697 Rocket 3.0 00:59:14 10° SW 01:04:46 61° WNW 01:06:00 49° NNW
H-2A R/B (2) 4.3 00:05:19 10° WSW 01:06:32 46° SSW 01:09:35 37° SSE
H-2A R/B 3.2 01:03:39 10° SSW 01:08:44 43° W 01:13:55 10° NNW
Cosmos 1980 Rocket 4.2 01:20:56 10° SSW 01:22:19 18° SSW 01:22:19 18° SSW
CZ-4C R/B 4.3 01:21:24 10° NNW 01:25:16 24° NNE 01:25:16 24° NNE
Cosmos 2297 Rocket 4.2 01:24:04 10° NW 01:28:28 24° W 01:32:04 13° SSW
Milstar 3 4.2 01:30:39 10° WSW 01:34:44 26° SSW 01:34:44 26° SSW
NOSS 3-2 (C) 4.2 08:44:11 46° ENE 08:44:11 46° ENE 08:48:48 10° NE
Lacrosse 4 Rocket 3.9 08:57:05 18° NE 08:57:05 18° NE 08:58:20 10° NE
CENTAUR R/B 2.7 08:57:17 67° ENE 08:57:17 67° ENE 09:03:16 10° NE
CZ-2C R/B 3.2 09:00:57 10° NNE 09:05:23 48° E 09:05:23 48° E
Cosmos 1833 Rocket 3.9 09:08:55 19° SSE 09:12:22 38° ESE 09:17:34 10° NE
PAYLOAD A 4.3 09:07:59 10° NNE 09:12:41 65° ENE 09:12:41 65° ENE
In-Cosmos 22 4.3 09:14:21 63° NE 09:14:21 63° NE 09:19:00 10° NNE
Cosmos 1269 Rocket 4.2 09:17:07 71° E 09:17:07 71° E 09:22:09 10° NNE
Lacrosse 5 rocket 3.0 09:22:56 28° E 09:22:56 28° E 09:25:05 10° ENE
Cosmos 2142 Rocket 4.3 09:19:03 10° N 09:25:18 79° W 09:31:36 10° S
Cosmos 2344 3.6 09:27:00 51° WNW 09:27:38 52° NW 09:35:26 10° NNE
USA 238 DEB 3.9 09:29:27 48° NW 09:29:27 48° NW 09:35:57 10° NNE
USA 238 3.9 09:29:32 49° NW 09:29:32 49° NW 09:36:03 10° NNE
Cosmos 2082 Rocket 3.9 09:26:39 10° SSE 09:31:28 31° ESE 09:36:19 10° NE
Meteor 1-16 Rocket 4.0 09:27:24 10° N 09:32:44 84° E 09:38:04 10° S
NOSS 3-2 (A) 4.1 09:34:08 38° NNW 09:34:08 38° NNW 09:39:36 10° NNE
Cosmos 1656 3.7 09:36:09 27° NNW 09:39:26 84° ENE 09:45:08 10° SSE
CZ-4B R/B 3.3 09:36:21 10° SE 09:39:27 31° ENE 09:42:33 10° N
ATLAS 3B R/B 3.3 09:36:32 10° SSW 09:42:52 52° ESE 09:49:15 10° NE
Cosmos 2279 Rocket 3.9 09:44:15 10° NNW 09:50:19 58° W 09:56:20 10° S
COSMOS 2406 3.0 09:48:10 38° SSW 09:50:27 80° WNW 09:56:10 10° NNE
Cosmos 292 Rocket 4.3 09:57:37 41° SW 09:57:37 41° SW 10:01:12 10° S
Cosmos 1697 Rocket 3.0 09:52:27 10° NNW 09:58:06 65° ENE 10:03:42 10° SE
ADEOS Rocket 2.8 09:54:23 10° S 09:59:44 53° W 10:05:11 10° NNW
BREEZE-M DEB (TANK) 2.3 10:04:39 45° SSE 10:04:39 45° SSE 10:06:20 10° SE
ERS-2 1.9 10:00:49 10° SSE 10:04:27 81° WSW 10:05:48 37° NNW
Cosmos 44 Rocket 3.3 10:04:23 32° NW 10:06:45 68° WSW 10:11:53 10° SSE
Cosmos 1908 3.7 10:08:35 43° SW 10:08:35 43° SW 10:11:31 10° S
SAR-Lupe-4 4.3 10:06:20 10° SSE 10:09:48 53° ENE 10:13:19 10° N
CBERS 1 LM4 rocket 4.4 10:06:13 10° N 10:11:02 54° WNW 10:14:28 18° SW
Abrixas rocket 3.6 10:11:30 24° N 10:11:34 24° NNE 10:13:58 10° ENE
FENGYUN 3A 3.6 10:06:42 10° NNE 10:12:10 89° W 10:17:37 10° SSW
Cosmos 1461 3.1 10:10:10 20° SSW 10:13:15 85° ESE 10:17:58 10° NNE
TELKOM 3 3.6 10:12:57 66° SW 10:13:21 85° SSE 10:17:06 10° ENE
Cosmos 2251 Rocket 3.9 10:12:03 10° S 10:17:22 69° ESE 10:22:42 10° NNE
SL-14 R/B 3.2 10:13:32 10° S 10:17:30 89° E 10:21:32 10° N
Cosmos 1689 Rocket 3.8 10:15:20 10° SE 10:18:01 33° ENE 10:20:43 10° N
ISS -3.7 10:19:03 53° WNW 10:19:28 58° NNW 10:22:47 10° NE
Cosmos 1980 Rocket 3.0 10:14:31 10° NNW 10:19:59 52° ENE 10:25:26 10° SE
USA 290 2.5 10:19:22 10° S 10:22:32 66° ESE 10:25:45 10° NNE
DELTA 2 R/B (1) 4.4 10:24:50 24° WSW 10:27:15 35° SSW 10:32:17 10° SE
SAR-Lupe-1 4.0 10:23:51 10° SSE 10:27:24 85° ENE 10:31:00 10° NNW
Cosmos 1300 2.8 10:23:46 10° N 10:27:35 78° E 10:31:24 10° S
Cosmos 2360 4.2 10:25:56 10° NNW 10:31:40 86° WSW 10:37:20 10° SSE
ALOS 2.3 10:28:34 10° N 10:33:07 54° WNW 10:37:39 10° SSW
Lacrosse 4 Rocket 2.7 10:33:26 21° NW 10:33:26 21° NW 10:36:28 10° N
NOSS 3-2 (C) 4.4 10:31:39 21° WNW 10:34:02 27° NW 10:39:35 10° NNE
Cosmos 1726 Rocket 3.5 10:32:23 10° N 10:36:52 85° W 10:41:19 10° S
Cosmos 1484 Rocket 3.2 10:35:39 10° N 10:39:15 38° WNW 10:42:46 10° SW
Cosmos 1626 2.7 10:38:31 10° SW 10:41:53 34° WNW 10:45:17 10° N
CZ-2C R/B 3.7 10:40:03 10° NNW 10:43:36 20° WNW 10:44:45 18° W
Cosmos 2278 3.7 10:41:12 10° NNW 10:46:53 88° ENE 10:52:32 10° SSE
Aureole 3 3.8 10:43:11 10° N 10:47:20 84° E 10:52:39 10° S
CENTAUR R/B 3.7 10:44:29 17° WNW 10:47:59 26° NNW 10:53:53 10° NNE
H-2A R/B 4.2 10:44:42 10° NNE 10:48:21 42° E 10:52:00 10° S
Cosmos 2228 3.3 10:44:39 10° NNW 10:48:48 44° W 10:52:58 10° SSW
CZ-4B R/B 2.8 10:45:14 10° N 10:49:16 78° WNW 10:53:29 10° SSW
Cosmos 2322 Rocket 4.4 10:45:55 10° N 10:50:28 24° NE 10:54:57 10° ESE
Cosmos 1606 Rocket 3.9 10:47:40 10° NNW 10:51:56 44° W 10:56:10 10° SSW
ADEOS 4.1 10:47:15 10° N 10:52:02 37° WNW 10:56:47 10° SW
Cosmos 1092 Rocket 4.0 10:47:55 10° SSW 10:53:56 57° W 11:00:04 10° N
Cosmos 1833 Rocket 3.4 10:51:20 10° WSW 10:56:20 32° NW 11:01:22 10° N
Cosmos 967 Rocket 4.5 10:50:10 10° NW 10:56:24 66° WSW 11:02:34 10° SSE
COSMO-SKYMED 1 2.6 10:52:23 10° S 10:56:41 62° W 11:01:00 10° NNW
Elektron 1 4.4 10:56:36 10° WSW 10:59:39 36° NW 11:02:20 10° NNE
Lacrosse 5 rocket 2.3 10:58:36 15° W 11:00:50 25° NNW 11:04:02 10° NNE
CZ-3 R/B 3.6 10:43:33 10° WSW 11:02:52 39° SSW 11:09:02 10° SE
Meteor 1-24 Rocket 4.0 10:57:31 10° SSW 11:02:52 46° WNW 11:08:27 10° N
Meteor 1-31 Rocket 3.7 10:59:54 10° N 11:03:19 28° WNW 11:06:41 10° SW
ATLAS CENTAUR R/B 3.8 11:01:14 10° S 11:04:31 25° ESE 11:07:41 10° ENE
Envisat 4.3 11:00:05 10° NNE 11:04:59 47° E 11:09:51 10° S
Meteor PRIRODA 3.7 11:02:31 10° N 11:06:05 52° WNW 11:09:39 10° SSW
Cosmos 407 Rocket 4.1 11:01:36 10° S 11:06:38 61° ESE 11:11:43 10° NNE
Meteor 2-10 Rocket 3.8 11:02:37 10° N 11:07:38 72° E 11:12:42 10° SSE
Cosmos 2369 4.2 11:04:42 10° NW 11:09:53 38° WSW 11:15:03 10° S
CZ-4B R/B 3.2 11:09:50 10° SW 11:11:46 14° W 11:13:43 10° WNW
Cosmos 1140 Rocket 4.3 11:09:16 10° S 11:14:16 57° ESE 11:19:18 10° NNE
Cosmos 2082 Rocket 2.7 11:10:11 10° SW 11:15:23 38° WNW 11:20:38 10° N
Okean 1-7 Rocket 3.8 11:11:34 10° SSW 11:15:58 49° W 11:20:24 10° N
PSLV R/B 3.9 11:11:57 10° NNE 11:16:06 88° W 11:20:12 10° SSW
Cosmos 1455 3.0 11:13:03 10° N 11:16:52 56° E 11:20:39 10° SSE
CZ-4B DEB 4.5 11:15:40 10° NNE 11:21:11 78° ESE 11:26:38 10° S
Cosmos 2058 Rocket 3.5 11:18:11 10° NNW 11:22:27 43° W 11:26:40 10° SSW
Meteor 2-1 Rocket 4.4 11:18:19 10° N 11:24:01 86° E 11:29:48 10° S
SL-27 R/B 3.9 11:21:45 10° S 11:25:11 44° ESE 11:28:39 10° NNE
SL-16 R/B 3.1 11:20:08 10° NNW 11:25:41 52° ENE 11:31:12 10° SE
